Home > Weather > Saint-Petersburg > Past weeks

Flag for Russia Weather for the Past 2 Weeks in Saint-Petersburg, Russia

Now
45 °F

Low clouds.


Feels Like: 41 °F
Forecast: 41 / 58 °F
Wind: 6 mph from West

Location: St. Petersburg

Current Time: Apr 30, 2016 at 4:56:27 AM

Latest Report: Apr 30, 2016 at 3:30 AM


Visibility: 4 mi

Pressure: 30.27 "Hg

Humidity: 93%

Dew Point: 43 °F

Location of Saint-PetersburgLocation

Historic Weather in Saint-Petersburg — Graph

°F

Saint-Petersburg Temperature Yesterday

Maximum temperature yesterday: 57 °F (at 12:00 AM)
Minimum temperature yesterday: 41 °F (at 9:00 AM)
Average temperature yesterday: 46 °F

High & Low Weather Summary for the Past Weeks

 TemperatureHumidityPressure
High66 °F (Apr 28, 4:30 PM)100% (Apr 20, 4:30 AM)30.30 "Hg (Apr 20, 4:30 AM)
Low28 °F (Apr 16, 2:30 AM)29% (Apr 17, 3:30 PM)29.47 "Hg (Apr 18, 5:00 AM)
Average44 °F78%29.77 "Hg
* Reported Apr 15 3:00 AM — Apr 30 3:30 AM, Saint-Petersburg, Weather by CustomWeather, © 2016

Note: Actual official high and low records may vary slightly from our data, if they occured in-between our weather recording intervals... More about our weather records

Advertising

Saint-Petersburg Weather History for the Previous 24 Hours

Scroll right to see more
 ConditionsComfort  
Time TempWeatherWind HumidityBarometerVisibility
3:30 AM
Sat, Apr 30
45 °FLow clouds.6 mph93%30.27 "Hg4 mi
2:30 AM45 °FLow clouds.3 mph93%30.27 "Hg5 mi
2:00 AM46 °FPassing clouds.6 mph93%30.27 "HgN/A
1:30 AM46 °FLow clouds.6 mph93%30.27 "HgN/A
1:00 AM46 °FLow clouds.6 mph93%30.27 "HgN/A
12:30 AM46 °FLow clouds.8 mph93%30.27 "HgN/A
12:00 AM46 °FLow clouds.6 mph93%30.27 "HgN/A
11:30 PM
Fri, Apr 29
46 °FLow clouds.6 mph93%30.30 "HgN/A
11:00 PM46 °FLow clouds.6 mph87%30.30 "HgN/A
10:30 PM45 °FLow clouds.6 mph93%30.30 "HgN/A
10:00 PM45 °FLow clouds.8 mph93%30.30 "HgN/A
9:30 PM45 °FLow clouds.6 mph93%30.30 "HgN/A
9:00 PM45 °FLow clouds.8 mph93%30.30 "HgN/A
8:30 PM45 °FLow clouds.10 mph93%30.30 "HgN/A
8:00 PM45 °FPartly sunny.10 mph93%30.30 "HgN/A
7:30 PM45 °FPartly sunny.10 mph93%30.30 "HgN/A
7:00 PM45 °FPartly sunny.10 mph93%30.30 "HgN/A
6:30 PM45 °FScattered clouds.6 mph93%30.30 "HgN/A
6:00 PM46 °FBroken clouds.8 mph87%30.30 "HgN/A
5:30 PM46 °FBroken clouds.8 mph87%30.30 "HgN/A
5:00 PM45 °FCloudy.8 mph93%30.30 "HgN/A
4:30 PM43 °FCloudy.8 mph93%30.30 "HgN/A
4:00 PM43 °FSprinkles. Cloudy.8 mph93%30.30 "HgN/A
3:30 PM43 °FSprinkles. Cloudy.8 mph93%30.30 "HgN/A
3:00 PM43 °FSprinkles. Cloudy.8 mph93%30.30 "HgN/A
2:30 PM43 °FSprinkles. Cloudy.10 mph93%30.30 "HgN/A
2:00 PM43 °FSprinkles. Cloudy.10 mph93%30.30 "HgN/A
1:30 PM41 °FSprinkles. Cloudy.10 mph100%30.30 "Hg5 mi
1:00 PM41 °FSprinkles. Cloudy.10 mph100%30.30 "Hg4 mi
12:30 PM43 °FSprinkles. Cloudy.8 mph93%30.30 "Hg6 mi
12:00 PM43 °FSprinkles. Cloudy.10 mph93%30.27 "Hg6 mi
11:30 AM41 °FSprinkles. Cloudy.8 mph93%30.30 "Hg4 mi
11:00 AM41 °FSprinkles. Cloudy.13 mph93%30.27 "Hg4 mi
10:30 AM41 °FSprinkles. Cloudy.13 mph93%30.27 "HgN/A
10:00 AM41 °FSprinkles. Cloudy.10 mph93%30.27 "HgN/A
9:30 AM41 °FSprinkles. Cloudy.15 mph93%30.27 "Hg6 mi
9:00 AM41 °FSprinkles. Mostly cloudy.15 mph93%30.24 "HgN/A
8:00 AM43 °FSprinkles. Mostly cloudy.13 mph93%30.24 "HgN/A
7:30 AM43 °FSprinkles. Mostly cloudy.13 mph93%30.24 "HgN/A
7:00 AM45 °FSprinkles. Mostly cloudy.13 mph93%30.21 "HgN/A
6:30 AM45 °FSprinkles. Mostly cloudy.10 mph93%30.18 "HgN/A
5:30 AM46 °FSprinkles. Mostly cloudy.13 mph93%30.15 "Hg5 mi
5:00 AM50 °FLight rain. Partly sunny.1 mph94%30.15 "HgN/A
4:30 AM50 °FLight rain. Partly cloudy.3 mph94%30.12 "HgN/A
4:00 AM52 °FLight rain. Partly cloudy.3 mph88%30.12 "HgN/A
Weather by CustomWeather, © 2016

See weather overviewHow to use our weather pages